Skip Page Navigation
NASA JPL Caltech
NASA Logo - Jet Propulsion Laboratory + View the NASA Portal
+ Center for Near-Earth Object Studies
JPL Home Earth Solar System Stars & Galaxies Technology
JPL Solar System Dynamics
BODIES ORBITS EPHEMERIDES TOOLS PHYSICAL DATA DISCOVERY FAQ SITE MAP
JPL Small-Body Database Browser
Search: [ help ]  
190222 (2006 DE34)
Classification: Main-belt Asteroid          SPK-ID: 2190222
Ephemeris | Orbit Diagram | Orbital Elements | Mission Design | Physical Parameters | Discovery Circumstances ]

[ show orbit diagram ]
Orbital Elements at Epoch 2459200.5 (2020-Dec-17.0) TDB
Reference: JPL 19 (heliocentric ecliptic J2000)
 Element Value Uncertainty (1-sigma)   Units 
e .07278653674740976 4.8916e-08  
a 2.980730353791365 2.2543e-08 au
q 2.76377331436101 1.4386e-07 au
i 2.26409866836832 4.7614e-06 deg
node 145.4166690908459 0.00012328 deg
peri 255.546719133791 0.00012812 deg
M 86.93694118918208 3.2976e-05 deg
tp 2458746.574775376575
(2019-Sep-20.07477538)
0.00017307 TDB
period 1879.673687953116
5.15
2.1324e-05
5.838e-08
d
yr
n .1915226043260863 2.1727e-09 deg/d
Q 3.19768739322172 2.4184e-08 au
  Orbit Determination Parameters
   # obs. used (total)      329  
   data-arc span      8218 days (22.50 yr)  
   first obs. used      1998-09-18  
   last obs. used      2021-03-19  
   planetary ephem.      DE441  
   SB-pert. ephem.      SB441-N16  
   condition code      0  
   norm. resid. RMS      .54736  
   source      ORB  
   producer      Otto Matic  
   solution date      2021-May-04 10:17:45  

Additional Information
 Earth MOID = 1.7718 au 
 Jupiter MOID = 2.11274 au 
 T_jup = 3.254 
[ show covariance matrix ]

Ephemeris | Orbit Diagram | Orbital Elements | Mission Design | Physical Parameters | Discovery Circumstances ]

Physical Parameter Table
Parameter Symbol Value Units Sigma Reference Notes
absolute magnitude H 16.10   n/a MPCxxxxx  

190222 (2006 DE34)          Discovered 2006-Feb-20 by Spacewatch at Kitt Peak
Reference: 20080819/Numbers.arcLast Updated: 2008-08-25
Ephemeris | Orbit Diagram | Orbital Elements | Mission Design | Physical Parameters | Discovery Circumstances ]
ABOUT SSD CREDITS/AWARDS PRIVACY/COPYRIGHT GLOSSARY LINKS
FirstGov 2021-May-09 03:12 UT
(server date/time)  
NASA Home Page
Site Manager:   Ryan S. Park
Webmaster  Alan B. Chamberlin